Weather History for KMKO - November, 2012

Change the Weather History Date:

Thursday, November 22, 2012

  Actual Average Record
Temperature  
Mean Temperature 62 °F -  
Max Temperature 73 °F 57 °F 77 °F (2010)
Min Temperature 51 °F 36 °F 24 °F (2008)
Degree Days  
Heating Degree Days 3    
Growing Degree Days 12 (Base 50)    
Moisture  
Dew Point 45 °F    
Average Humidity 59    
Maximum Humidity 84    
Minimum Humidity 38    
Precipitation  
Precipitation 0.01 in - - ()
Sea Level Pressure  
Sea Level Pressure 30.06 in    
Wind  
Wind Speed 10 mph (SSE)    
Max Wind Speed 20 mph    
Max Gust Speed 32 mph    
Visibility 10 miles    
Events Rain    
Averages and records for this station are not official NWS values.
T = Trace of Precipitation, MM = Missing Value Source: NWS Daily Summary

Daily Weather History Graph

Daily Weather History Graph

Search for Another Location

Airport or City:

Trip Planner

Search our weather history database for the weather conditions in past years. The results will help you decide how hot, cold, wet, or windy it might be!

Date:

Astronomy

Nov. 22, 2012 Rise Set
Actual Time 7:04 AM CST 5:10 PM CST
Civil Twilight 6:37 AM CST 5:38 PM CST
Nautical Twilight 6:05 AM CST 6:09 PM CST
Astronomical Twilight 5:35 AM CST 6:39 PM CST
Moon 1:47 PM CST (11/22) 1:35 AM CST (11/22)
Length of Visible Light 11h 01m
Length of Day
10h 05m
Waxing Gibbous, 71% of the Moon is Illuminated
Nov 22
Waxing Gibbous
Nov 28
Full
Dec 6
Last Quarter
Dec 13
New
Dec 19
First Quarter

Hourly Weather History & Observations

Time (CST) Temp. Dew Point Humidity Pressure Visibility Wind Dir Wind Speed Gust Speed Precip Events Conditions
12:53 AM 52.0 °F 42.1 °F 69% 30.09 in 10.0 mi SSE 8.1 mph - N/A   Clear
1:53 AM 54.0 °F 43.0 °F 66% 30.07 in 10.0 mi SSE 8.1 mph - N/A   Clear
2:53 AM 53.1 °F 43.0 °F 69% 30.07 in 10.0 mi SSE 9.2 mph - N/A   Clear
3:53 AM 53.1 °F 43.0 °F 69% 30.06 in 10.0 mi SSE 9.2 mph - N/A   Clear
4:53 AM 53.1 °F 42.1 °F 66% 30.06 in 10.0 mi SSE 9.2 mph - N/A   Clear
5:53 AM 51.1 °F 42.1 °F 71% 30.07 in 10.0 mi SSE 8.1 mph - N/A   Clear
6:53 AM 51.1 °F 42.1 °F 71% 30.07 in 10.0 mi SSE 8.1 mph - N/A   Clear
7:53 AM 55.0 °F 43.0 °F 64% 30.08 in 10.0 mi SE 8.1 mph - N/A   Clear
8:53 AM 59.0 °F 44.1 °F 58% 30.08 in 10.0 mi SE 12.7 mph - N/A   Clear
9:53 AM 63.0 °F 46.0 °F 54% 30.08 in 10.0 mi SSE 11.5 mph - N/A   Clear
10:53 AM 66.0 °F 46.9 °F 50% 30.07 in 10.0 mi South 15.0 mph - N/A   Clear
11:53 AM 69.1 °F 46.9 °F 45% 30.03 in 10.0 mi South 15.0 mph 28.8 mph 0.00 in   Clear
12:53 PM 72.0 °F 46.0 °F 40% 29.99 in 10.0 mi South 19.6 mph 32.2 mph N/A   Clear
1:53 PM 72.0 °F 46.9 °F 41% 29.98 in 10.0 mi South 18.4 mph 25.3 mph N/A   Clear
2:53 PM 73.0 °F 46.0 °F 38% 29.96 in 10.0 mi South 18.4 mph 27.6 mph N/A   Clear
3:53 PM 72.0 °F 46.0 °F 40% 29.97 in 10.0 mi South 13.8 mph - N/A   Clear
4:53 PM 69.1 °F 46.0 °F 44% 30.00 in 10.0 mi South 15.0 mph 23.0 mph N/A   Partly Cloudy
5:53 PM 66.0 °F 46.9 °F 50% 30.00 in 10.0 mi South 10.4 mph - 0.00 in   Mostly Cloudy
6:53 PM 61.0 °F 46.9 °F 60% 30.06 in 10.0 mi Calm Calm - N/A   Scattered Clouds
8:53 PM 57.0 °F 48.0 °F 72% 30.09 in 10.0 mi South 3.5 mph - N/A   Partly Cloudy
9:53 PM 55.9 °F 46.9 °F 72% 30.09 in 10.0 mi SSE 3.5 mph - N/A   Partly Cloudy
10:53 PM 64.0 °F 46.9 °F 54% 30.15 in 10.0 mi NW 11.5 mph 21.9 mph N/A   Mostly Cloudy
11:53 PM 57.9 °F 53.1 °F 84% 30.18 in 10.0 mi North 13.8 mph 23.0 mph 0.01 in Rain Light Rain